Greensboro, NC

10:17 PM EDT on April 26, 2017 (GMT -0400)
Piedmont Triad International

Weather History for KGSO - May, 2012

Change the Weather History Date:

Tuesday, May 22, 2012

  Actual Average Record
Temperature  
Mean Temperature 73 °F 68 °F  
Max Temperature 82 °F 79 °F 97 °F (1941)
Min Temperature 63 °F 58 °F 40 °F (2002)
Degree Days  
Heating Degree Days 0 1  
Month to date heating degree days 17 58  
Since 1 July heating degree days 2839 3604  
Cooling Degree Days 8 5  
Month to date cooling degree days 105 69  
Year to date cooling degree days 168 107  
Growing Degree Days 22 (Base 50)    
Moisture  
Dew Point 62 °F    
Average Humidity 72    
Maximum Humidity 93    
Minimum Humidity 51    
Precipitation  
Precipitation 0.12 in 0.11 in 1.49 in (2003)
Month to date precipitation 4.53 2.31  
Year to date precipitation 13.35 15.63  
Sea Level Pressure  
Sea Level Pressure 29.84 in    
Wind  
Wind Speed 3 mph (WSW)    
Max Wind Speed 13 mph    
Max Gust Speed 23 mph    
Visibility 10 miles    
Events Rain , Thunderstorm    
T = Trace of Precipitation, MM = Missing Value Source: NWS Daily Summary

Daily Weather History Graph

Daily Weather History Graph

Search for Another Location

Airport or City:

Trip Planner

Search our weather history database for the weather conditions in past years. The results will help you decide how hot, cold, wet, or windy it might be!

Date:

Astronomy

May. 22, 2012 Rise Set
Actual Time 6:08 AM EDT 8:24 PM EDT
Civil Twilight 5:39 AM EDT 8:53 PM EDT
Nautical Twilight 5:03 AM EDT 9:29 PM EDT
Astronomical Twilight 4:24 AM EDT 10:08 PM EDT
Moon 7:18 AM EDT (5/22) 10:01 PM EDT (5/22)
Length of Visible Light 15h 14m
Length of Day
14h 16m
Waxing Crescent, 3% of the Moon is Illuminated
May 22
Waxing Crescent
May 28
First Quarter
Jun 4
Full
Jun 11
Last Quarter
Jun 19
New

Hourly Weather History & Observations

Time (EDT) Temp. Heat Index Dew Point Humidity Pressure Visibility Wind Dir Wind Speed Gust Speed Precip Events Conditions
12:54 AM 68.0 °F - 60.1 °F 76% 29.90 in 10.0 mi Calm Calm - 0.00 in   Overcast
1:03 AM 66.2 °F - 60.8 °F 83% 29.92 in 10.0 mi Calm Calm - 0.00 in Rain , Thunderstorm Light Thunderstorms and Rain
1:46 AM 66.2 °F - 60.8 °F 83% 29.91 in 10.0 mi Calm Calm - 0.00 in   Scattered Clouds
1:54 AM 66.9 °F - 61.0 °F 81% 29.88 in 10.0 mi Calm Calm - 0.00 in   Mostly Cloudy
2:54 AM 64.9 °F - 61.0 °F 87% 29.86 in 10.0 mi West 3.5 mph - N/A   Clear
3:54 AM 63.0 °F - 60.1 °F 90% 29.85 in 10.0 mi Calm Calm - N/A   Clear
4:54 AM 64.0 °F - 60.1 °F 87% 29.84 in 10.0 mi Calm Calm - N/A   Scattered Clouds
5:54 AM 64.0 °F - 60.1 °F 87% 29.84 in 10.0 mi NNW 3.5 mph - N/A   Mostly Cloudy
6:54 AM 64.0 °F - 62.1 °F 93% 29.86 in 10.0 mi Calm Calm - N/A   Mostly Cloudy
7:54 AM 64.9 °F - 62.1 °F 90% 29.87 in 10.0 mi Calm Calm - N/A   Mostly Cloudy
8:54 AM 71.1 °F - 62.1 °F 73% 29.87 in 10.0 mi Calm Calm - N/A   Scattered Clouds
9:54 AM 73.9 °F - 61.0 °F 64% 29.88 in 10.0 mi Calm Calm - N/A   Mostly Cloudy
10:54 AM 73.9 °F - 61.0 °F 64% 29.88 in 10.0 mi Calm Calm - N/A   Mostly Cloudy
11:54 AM 73.9 °F - 63.0 °F 68% 29.88 in 10.0 mi Calm Calm - N/A   Mostly Cloudy
12:54 PM 78.1 °F - 62.1 °F 58% 29.86 in 10.0 mi South 4.6 mph - N/A   Partly Cloudy
1:54 PM 80.1 °F 80.9 °F 60.1 °F 50% 29.83 in 10.0 mi Calm Calm - N/A   Scattered Clouds
2:54 PM 80.1 °F 81.1 °F 61.0 °F 52% 29.79 in 10.0 mi WSW 5.8 mph - N/A   Scattered Clouds
3:54 PM 81.0 °F 81.9 °F 62.1 °F 52% 29.78 in 10.0 mi Variable 6.9 mph - N/A   Scattered Clouds
4:54 PM 75.9 °F - 64.9 °F 69% 29.79 in 10.0 mi West 8.1 mph - 0.00 in Rain Light Rain
5:12 PM 78.8 °F - 60.8 °F 54% 29.81 in 10.0 mi West 3.5 mph - 0.00 in Thunderstorm Thunderstorm
5:54 PM 80.1 °F 81.5 °F 63.0 °F 56% 29.78 in 10.0 mi Calm Calm - 0.00 in Thunderstorm Thunderstorm
6:33 PM 78.8 °F - 62.6 °F 57% 29.80 in 10.0 mi East 3.5 mph - N/A   Scattered Clouds
6:54 PM 78.1 °F - 63.0 °F 60% 29.78 in 10.0 mi SE 5.8 mph - N/A   Mostly Cloudy
7:54 PM 73.0 °F - 63.0 °F 71% 29.79 in 10.0 mi East 5.8 mph - N/A   Mostly Cloudy
8:54 PM 71.6 °F - 64.4 °F 78% 29.80 in 10.0 mi East 4.6 mph - N/A   Scattered Clouds
9:21 PM 73.4 °F - 62.6 °F 69% 29.83 in 10.0 mi SE 8.1 mph - N/A Thunderstorm Thunderstorm
9:54 PM 72.0 °F - 63.0 °F 73% 29.82 in 10.0 mi South 9.2 mph - 0.00 in Rain , Thunderstorm Light Thunderstorms and Rain
10:54 PM 64.9 °F - 62.1 °F 90% 29.87 in 7.0 mi North 4.6 mph - 0.05 in Rain , Thunderstorm Light Thunderstorms and Rain
11:43 PM 64.4 °F - 62.6 °F 94% 29.88 in 10.0 mi NNW 4.6 mph - 0.05 in Thunderstorm Thunderstorm
11:54 PM 64.0 °F - 62.1 °F 93% 29.86 in 10.0 mi NW 6.9 mph - 0.05 in Thunderstorm Thunderstorm